Doha, Qatar

12:26 PM AST on February 10, 2016 (GMT +0300)
Doha International

Weather History for OTBD - June, 2013

Change the Weather History Date:

Sunday, June 2, 2013

  Actual Average Record
Temperature  
Mean Temperature 94 °F -  
Max Temperature 104 °F 106 °F 114 °F (2015)
Min Temperature 84 °F 82 °F 78 °F (2004)
Cooling Degree Days 29    
Growing Degree Days 44 (Base 50)    
Moisture  
Dew Point 58 °F    
Average Humidity 33    
Maximum Humidity 58    
Minimum Humidity 10    
Precipitation  
Precipitation 0.00 in 0.00 in - ()
Sea Level Pressure  
Sea Level Pressure 29.56 in    
Wind  
Wind Speed 9 mph ()    
Max Wind Speed 85 mph    
Max Gust Speed 14 mph    
Visibility 4.0 miles    
Events      
Averages and records for this station are not official NWS values.
T = Trace of Precipitation, MM = Missing Value Source: Averaged Metar Reports

Daily Weather History Graph

Daily Weather History Graph

Search for Another Location

Airport or City:

Trip Planner

Search our weather history database for the weather conditions in past years. The results will help you decide how hot, cold, wet, or windy it might be!

Date:

Astronomy

Jun. 02, 2013 Rise Set
Actual Time 4:43 AM AST 6:20 PM AST
Civil Twilight 4:17 AM AST 6:45 PM AST
Nautical Twilight 3:47 AM AST 7:16 PM AST
Astronomical Twilight 3:15 AM AST 7:48 PM AST
Moon 12:23 AM AST (6/2) 12:57 PM AST (6/2)
Length of Visible Light 14h 28m
Length of Day
13h 37m
Waning Crescent, 34% of the Moon is Illuminated
Jun 2
Waning Crescent
Jun 8
New
Jun 16
First Quarter
Jun 23
Full
Jun 30
Last Quarter

Hourly Weather History & Observations

Time (AST) Temp. Heat Index Dew Point Humidity Pressure Visibility Wind Dir Wind Speed Gust Speed Precip Events Conditions
12:00 AM 87.8 °F 93.8 °F 71.6 °F 58% 29.56 in 5.6 mi SSW 4.6 mph - N/A   Unknown
12:30 AM 87.8 °F 92.6 °F 69.8 °F 55% 29.56 in 5.6 mi SW 4.6 mph - N/A   Unknown
1:00 AM 87.8 °F 93.8 °F 71.6 °F 58% 29.53 in 5.0 mi SW 5.8 mph - N/A   Unknown
1:30 AM 87.8 °F 93.8 °F 71.6 °F 58% 29.53 in 5.0 mi SW 6.9 mph - N/A   Unknown
2:00 AM 87.8 °F 93.8 °F 71.6 °F 58% 29.53 in 5.0 mi SW 5.8 mph - N/A   Unknown
2:30 AM 86.0 °F 89.4 °F 68.0 °F 55% 29.53 in 5.0 mi SW 9.2 mph - N/A   Unknown
3:00 AM 86.0 °F 88.2 °F 66.2 °F 51% 29.53 in 5.0 mi SW 10.4 mph - N/A   Unknown
3:30 AM 86.0 °F 89.4 °F 68.0 °F 55% 29.53 in 5.0 mi SW 10.4 mph - N/A   Unknown
4:00 AM 86.0 °F 88.2 °F 66.2 °F 51% 29.56 in 5.0 mi SW 9.2 mph - N/A   Unknown
4:30 AM 86.0 °F 86.6 °F 62.6 °F 45% 29.56 in 5.0 mi North - - N/A   Unknown
5:00 AM 86.0 °F 85.4 °F 59.0 °F 40% 29.56 in 5.6 mi SW 9.2 mph - N/A   Unknown
5:30 AM 87.8 °F 87.1 °F 59.0 °F 38% 29.56 in 5.6 mi WSW 6.9 mph - N/A   Unknown
6:00 AM 89.6 °F 87.3 °F 53.6 °F 29% 29.56 in 4.3 mi WSW 6.9 mph - N/A   Unknown
7:00 AM 93.2 °F - 46.4 °F 20% 29.59 in 3.7 mi WSW 6.9 mph - N/A   Unknown
8:00 AM 95.0 °F - 48.2 °F 20% 29.59 in 3.7 mi WNW 6.9 mph 13.8 mph N/A   Unknown
9:00 AM 99 °F - 48 °F 10% 29.61 in 3 mi WNW 8.1 mph - -   Widespread Dust
9:00 AM 98.6 °F - 48.2 °F 18% 29.59 in 3.7 mi WSW 8.1 mph - N/A   Unknown
10:00 AM 100.4 °F 98.4 °F 53.6 °F 21% 29.59 in 3.1 mi NNW 12.7 mph - N/A   Unknown
10:30 AM 102.2 °F 100.4 °F 53.6 °F 20% 29.59 in 3.1 mi North 11.5 mph - N/A   Unknown
11:00 AM 102.2 °F 100.4 °F 53.6 °F 20% 29.59 in 3.1 mi North 15.0 mph - N/A   Unknown
11:30 AM 102.2 °F - 51.8 °F 18% 29.59 in 3.1 mi North 12.7 mph - N/A   Unknown
12:00 PM 104.0 °F - 46.4 °F 14% 29.56 in 2.5 mi North 11.5 mph - N/A   Unknown
12:30 PM 104.0 °F - 39.2 °F 11% 29.56 in 2.5 mi North 12.7 mph - N/A   Unknown
1:00 PM 104.0 °F 102.9 °F 55.4 °F 20% 29.56 in 2.5 mi NNE 11.5 mph - N/A   Unknown
2:00 PM 102.2 °F - 48.2 °F 16% 29.56 in 2.5 mi NE 10.4 mph - N/A   Unknown
3:00 PM - - 58 °F % 29.55 in 2 mi NNE 85.2 mph - -   Widespread Dust
3:00 PM 98.6 °F 98.5 °F 59.0 °F 27% 29.53 in 2.5 mi ENE 9.2 mph - N/A   Unknown
3:30 PM 98.6 °F 97.6 °F 57.2 °F 25% 29.53 in 2.5 mi NE 8.1 mph - N/A   Unknown
4:00 PM 96.8 °F 98.0 °F 62.6 °F 32% 29.53 in 2.5 mi NE 6.9 mph - N/A   Unknown
4:30 PM 96.8 °F 98.0 °F 62.6 °F 32% 29.53 in 2.5 mi NNE 6.9 mph - N/A   Unknown
5:00 PM 96.8 °F 99.0 °F 64.4 °F 34% 29.53 in 3.1 mi ENE 5.8 mph - N/A   Unknown
6:00 PM 93.2 °F 96.2 °F 66.2 °F 41% 29.53 in 3.7 mi NE 4.6 mph - N/A   Unknown
6:30 PM 93.2 °F 97.7 °F 68.0 °F 44% 29.53 in 3.7 mi NNE 5.8 mph - N/A   Unknown
7:00 PM 93.2 °F 96.2 °F 66.2 °F 41% 29.56 in 5.0 mi North 4.6 mph - N/A   Unknown
7:30 PM 95.0 °F - 51.8 °F 23% 29.56 in 5.0 mi NNW 10.4 mph - N/A   Unknown
8:00 PM 95.0 °F - 50.0 °F 22% 29.56 in 5.0 mi NNW 10.4 mph - N/A   Unknown
8:30 PM 95.0 °F - 51.8 °F 23% 29.56 in 5.0 mi NW 9.2 mph - N/A   Unknown
9:00 PM 95.0 °F - 50.0 °F 22% 29.56 in 5.0 mi NNW 10.4 mph - N/A   Unknown
10:00 PM 93.2 °F - 50.0 °F 23% 29.56 in 5.0 mi NNW 9.2 mph - N/A   Unknown
11:00 PM 93.2 °F - 46.4 °F 20% 29.53 in 5.6 mi NNW 10.4 mph - N/A   Unknown